Location: Unspecified
(43.4354°N, 0.0000°E)
Time: 22:38:27
(UTC+00:00)

A-11 Canister half - Pass Details

Date: 26 June 2019
Orbit: 1515 x 1685 km, 47.2° (Epoch: 15 July)

Event Time Altitude Azimuth Distance (km) Brightness Sun altitude
Rises 09:54:04 0° 238° (WSW) 4,919 11.5 56.8°
Reaches altitude 10° 09:57:15 10° 238° (WSW) 3,921 11.1 57.3°
Maximum altitude 10:07:18 81° 153° (SSE) 1,657 10.7 58.9°
Drops below altitude 10° 10:17:03 10° 68° (ENE) 3,806 11.5 60.4°
Sets 10:20:05 0° 68° (ENE) 4,770 11.8 60.9°
